Temperature
30 30 28 27 27 29 29 28 26 26 27 27 27 26 25 25 24 24 23 22 21 20 20 19 19 19 18 18 17 17 17 17 16 17 17 16 16 17 17 17 16 16 16 16
30 29 29 29 29 30 31 30 29 27 26 27 27 26 25 26 26 25 23 22 21 21 20 20 20 20 19 18 18 17 16 16 16 16 16 16 16 16 17 17 16 16 15 16
30 30 30 31 31 31 30 29 29 27 25 26 26 24 24 24 24 24 24 23 22 22 21 21 20 20 20 19 18 17 16 16 15 15 15 15 15 15 16 16 16 15 15 15
29 31 31 31 31 30 27 28 29 29 27 25 24 22 22 22 23 24 23 23 22 22 21 21 21 20 20 19 18 17 17 16 15 15 14 14 14 14 14 15 15 15 15 15
28 30 31 30 31 31 29 30 28 26 25 24 21 19 20 21 22 23 24 23 23 22 22 21 21 20 19 19 18 17 17 16 15 14 14 13 13 13 13 13 14 14 14 14
28 31 32 31 31 30 30 29 25 23 22 20 20 19 21 22 23 24 24 24 23 23 22 21 21 20 19 18 18 17 16 15 14 14 13 13 12 12 12 13 13 13 14 14
25 27 28 31 30 26 28 27 24 21 19 19 21 20 23 25 25 25 25 24 23 23 22 22 21 20 19 18 18 17 16 15 14 13 13 12 12 12 12 12 13 13 13 13
24 22 26 30 30 28 29 29 27 25 25 24 23 21 23 26 26 25 25 24 24 23 23 22 21 20 19 18 17 16 15 15 14 13 12 12 12 11 11 11 11 11 12 12
28 27 29 31 31 30 29 29 30 28 28 27 24 23 24 25 26 26 25 25 24 23 22 22 21 20 19 18 17 16 15 14 13 13 12 12 11 11 10 10 10 10 11 11
30 29 30 31 31 31 30 30 29 27 26 26 26 24 23 24 25 25 25 25 24 23 22 21 20 19 18 17 16 15 14 13 13 12 11 11 10 10 10 9 9 9 9 10
30 29 29 30 29 29 29 29 28 28 27 26 26 25 25 25 25 25 25 24 23 22 21 20 19 18 17 16 15 14 14 13 12 12 11 10 10 9 9 9 9 9 9 9
30 29 28 27 28 29 29 28 28 26 26 27 26 25 26 26 26 25 24 23 22 21 20 19 18 17 16 15 14 14 13 12 12 11 10 10 9 9 9 8 8 8 8 8
28 28 27 25 24 27 29 29 28 27 27 26 26 25 26 27 26 24 23 22 21 20 19 18 17 16 15 14 14 13 12 12 11 10 10 9 9 9 8 8 8 8 8 8
27 28 27 27 27 28 29 29 29 27 26 26 26 26 26 25 24 24 23 22 21 20 19 18 17 16 15 14 13 12 12 11 10 10 9 9 9 8 8 8 8 8 7 7
28 28 28 29 29 29 29 28 28 27 27 26 26 26 26 25 24 23 22 21 20 19 18 17 16 15 14 13 13 12 11 11 10 10 9 9 8 8 8 8 8 7 7 7
29 27 27 28 29 29 28 29 28 27 27 26 26 26 26 25 24 23 22 21 20 19 18 17 16 15 14 13 12 12 11 11 10 9 9 9 8 8 8 8 8 7 7 7
28 27 26 26 28 28 27 28 28 27 27 26 25 25 25 24 23 22 21 20 19 18 17 16 15 14 14 13 12 12 11 10 10 9 9 9 8 8 8 8 7 7 7 7
27 26 26 26 26 25 27 29 28 27 27 27 26 25 24 24 23 22 21 19 18 18 16 15 15 14 13 13 12 11 11 10 9 9 9 8 8 8 8 7 7 7 7 7
28 27 26 26 25 26 28 28 27 26 26 27 26 25 24 24 23 22 19 19 18 17 16 15 14 14 13 12 12 11 10 10 9 9 8 8 8 7 7 7 7 7 7 7
28 27 26 25 25 24 27 28 27 26 25 25 25 24 24 23 22 22 20 19 17 16 15 14 14 13 13 12 11 10 10 9 9 8 8 8 7 7 7 7 7 7 7 7
27 26 26 25 25 26 28 27 27 25 24 24 24 23 23 22 21 20 19 18 17 16 15 14 14 13 12 12 11 10 9 9 8 8 8 7 7 7 7 7 7 7 7 7
27 27 26 26 26 26 27 27 26 25 25 24 24 23 23 22 21 20 19 18 17 16 15 14 13 13 12 11 10 9 9 8 8 8 8 7 7 7 7 7 7 7 7 7
28 28 27 27 26 26 26 26 26 25 25 24 23 23 22 21 21 20 19 18 16 15 14 14 13 12 12 11 10 9 8 8 8 7 7 7 7 7 7 7 7 7 7 7
28 28 27 26 27 27 27 26 26 25 25 24 23 23 22 21 20 19 18 17 16 15 14 13 13 12 11 10 9 8 8 7 7 7 7 7 7 7 7 7 7 7 7 7
27 27 27 26 27 27 26 26 26 25 25 24 23 23 22 21 20 19 18 17 15 14 14 13 12 11 10 9 8 7 7 7 7 6 6 7 6 6 7 7 7 8 8 7
28 28 27 26 27 26 26 25 26 25 25 24 23 22 22 21 20 19 17 16 15 14 13 13 12 10 9 8 7 7 7 6 6 6 6 6 6 6 7 7 8 8 8 7
Wind_Speed
15 12 6 4 11 12 9 11 12 11 3 1 7 11 11 11 10 11 11 10 11 11 10 9 9 10 9 7 6 5 6 6 6 5 6 6 5 5 4 2 4 4 5 6
10 6 11 13 13 12 10 9 1 5 4 5 5 9 8 8 8 11 12 12 12 12 10 8 8 7 7 6 4 5 5 5 6 5 7 6 6 6 5 2 2 1 4 5
12 5 9 10 10 11 10 13 8 3 8 12 5 5 8 6 6 8 10 11 11 11 9 6 4 5 5 5 4 5 4 4 6 7 7 8 7 7 6 5 4 1 3 4
10 8 5 7 7 5 5 10 13 8 5 5 4 3 7 8 8 8 9 9 10 8 6 3 2 4 5 6 6 5 6 6 7 8 9 11 9 9 9 7 7 7 6 6
8 7 4 5 5 6 3 6 6 16 16 7 6 3 5 10 9 10 10 9 8 6 3 1 3 4 6 7 6 5 6 6 7 8 9 10 9 9 9 9 11 10 9 8
17 10 6 5 5 12 14 6 10 12 9 6 5 5 6 11 13 12 9 8 5 3 1 2 3 3 4 5 5 5 5 5 6 7 8 9 10 9 11 12 11 9 7 6
15 14 13 6 5 7 14 9 3 2 2 7 12 6 4 10 11 10 8 6 3 1 3 2 4 5 5 5 5 5 7 7 7 7 7 8 9 10 11 11 9 9 8 8
4 2 10 7 7 3 9 8 7 9 5 2 8 3 7 11 10 6 3 1 1 4 4 7 8 6 6 6 6 6 6 7 7 7 8 8 10 8 7 9 10 10 9 9
5 2 5 4 6 7 9 11 13 11 10 4 6 9 7 6 6 3 3 4 5 6 8 9 10 10 8 8 7 6 7 7 6 7 8 8 7 7 9 9 10 9 9 11
11 10 5 4 3 5 8 10 9 9 9 9 6 8 5 5 6 8 9 8 8 9 10 11 12 11 10 9 7 7 7 7 7 8 7 10 7 7 7 9 10 10 10 9
8 7 8 6 8 9 8 10 9 9 9 7 7 6 8 5 6 7 8 9 9 10 11 12 11 11 10 10 9 8 8 8 7 8 7 7 8 8 9 8 9 8 9 9
7 7 6 10 14 10 3 6 7 7 8 7 8 6 4 3 6 7 8 9 9 10 11 11 11 11 10 11 11 10 9 9 8 8 8 8 8 9 9 10 9 9 9 10
9 6 6 2 4 10 5 2 4 6 8 8 8 4 1 8 10 10 10 10 9 9 10 10 10 10 10 11 11 11 11 11 11 10 9 9 10 10 9 10 10 9 10 10
4 7 8 9 5 4 6 6 4 5 8 9 10 12 11 10 10 10 9 8 9 9 8 9 8 8 8 9 9 10 11 11 11 11 10 10 10 10 10 10 10 10 10 11
4 10 11 11 11 8 7 9 7 6 8 9 10 12 10 10 10 10 9 10 11 10 10 10 9 8 8 8 9 9 10 10 10 11 11 11 10 10 10 10 10 11 11 13
3 7 12 14 13 9 11 12 8 5 7 9 10 11 10 11 11 11 11 11 11 10 12 13 11 11 10 9 10 10 9 10 9 10 12 11 11 11 11 10 11 11 11 11
6 6 10 14 15 13 11 8 2 4 8 8 11 9 10 11 11 11 11 9 9 12 13 13 12 11 9 9 8 9 9 10 10 11 12 11 11 12 12 14 13 12 12 12
6 7 7 12 15 15 9 1 1 4 6 8 9 6 9 10 9 9 6 8 10 11 12 12 13 12 11 10 9 9 11 11 12 12 12 12 12 14 13 14 14 13 12 12
7 5 7 10 14 13 5 3 3 3 8 7 3 6 10 10 12 4 9 8 9 10 11 11 12 13 12 11 9 10 12 12 12 13 13 14 14 15 15 15 15 14 12 12
6 6 7 10 14 17 18 4 6 3 5 7 4 7 9 11 10 8 11 11 10 10 10 11 12 12 11 10 9 11 13 13 13 13 14 14 14 15 16 16 15 14 12 12
7 9 11 12 14 11 5 10 1 6 3 3 6 7 8 8 8 9 10 9 9 10 10 11 11 11 10 9 9 11 12 13 13 13 14 15 15 15 16 15 13 13 12 12
11 11 11 11 12 6 8 0 5 5 3 5 6 7 7 7 8 9 9 9 9 10 11 12 10 10 9 9 9 12 12 12 13 14 15 16 16 16 16 15 15 14 12 12
7 7 7 7 8 2 4 7 7 6 6 6 7 7 7 8 8 9 8 8 9 10 11 11 12 11 10 10 10 12 12 12 13 15 16 16 17 16 16 15 14 12 10 9
11 10 9 9 11 10 10 11 10 8 7 7 7 7 7 8 8 8 8 8 8 9 11 11 12 12 11 11 11 11 12 12 13 15 16 15 15 16 15 13 11 9 9 8
12 13 13 14 14 13 12 10 10 8 9 9 8 8 8 7 7 7 7 7 8 9 10 10 10 11 13 12 12 12 12 11 13 15 15 15 14 15 14 13 10 9 7 5
13 13 10 12 10 8 10 11 12 9 9 9 9 9 8 7 7 7 6 6 7 9 9 10 11 12 13 13 12 11 11 11 13 13 13 12 12 12 12 12 11 8 6 5
Wind_Direction
238 241 281 323 278 273 236 212 201 198 206 20 134 143 152 157 151 138 134 126 117 110 108 109 109 109 106 99 89 74 50 33 1 14 341 334 339 335 317 351 53 9 357 339
271 285 289 241 242 270 282 289 229 93 18 302 201 145 133 153 140 136 133 132 128 122 116 117 121 114 103 95 87 86 52 25 4 4 316 310 331 316 303 7 6 358 7 333
295 259 243 271 284 292 321 331 314 239 196 227 213 137 135 143 132 134 128 126 124 125 123 120 105 87 74 66 53 51 45 24 14 349 329 338 327 313 315 333 308 349 332 303
330 311 300 292 289 315 336 306 298 300 244 242 182 199 184 166 175 158 140 140 132 127 128 107 46 36 22 17 16 36 41 38 22 4 348 338 324 322 328 330 328 330 310 286
284 283 289 291 308 326 250 244 344 11 359 353 36 26 217 170 184 171 158 154 143 142 124 85 343 4 5 1 360 19 48 43 27 5 348 338 332 332 327 325 315 309 298 279
311 309 297 318 355 358 328 332 24 24 9 340 251 217 204 176 174 163 157 150 146 154 259 290 327 356 13 358 353 358 13 20 10 348 332 327 327 325 316 303 294 295 293 294
309 333 325 322 31 16 303 304 351 2 177 235 227 216 171 125 129 136 140 147 156 225 279 324 353 350 351 347 354 355 356 358 349 332 323 326 320 308 297 301 319 328 322 318
187 286 292 333 349 307 287 324 335 322 310 174 166 174 99 95 96 99 100 93 297 304 337 348 343 349 355 353 356 353 351 344 337 330 325 316 299 300 316 330 327 313 303 298
341 230 221 8 347 350 343 348 342 325 330 358 125 122 108 111 116 84 7 334 329 352 350 346 354 356 356 357 359 356 350 341 334 326 315 301 312 332 324 314 303 303 310 311
339 332 6 4 350 38 353 353 358 342 353 350 64 97 109 103 30 7 349 346 358 355 351 354 350 345 350 351 355 356 351 342 332 323 323 325 333 320 314 314 309 304 301 300
349 325 328 348 16 1 359 17 4 349 1 345 350 75 89 48 10 357 349 354 354 352 351 345 342 346 347 345 347 347 342 336 330 331 334 329 323 321 313 305 303 309 310 309
358 323 344 25 5 329 10 22 4 354 344 320 323 98 77 14 30 22 1 357 1 357 346 342 343 346 343 340 339 336 337 332 335 336 331 325 321 316 313 312 313 310 306 305
348 316 307 35 331 281 285 25 4 338 305 302 319 77 339 19 33 22 8 358 347 343 345 345 345 343 337 336 333 332 330 331 331 327 323 320 316 313 310 309 306 304 301 297
302 293 313 330 339 325 321 327 344 330 323 329 336 347 353 26 13 357 346 339 341 345 349 345 343 339 336 331 333 328 325 328 324 324 319 313 310 309 307 304 302 300 298 294
274 301 316 315 315 309 307 310 312 315 317 308 325 329 358 21 359 348 344 347 339 334 339 340 337 332 331 331 329 324 325 324 322 318 312 308 305 304 301 299 297 295 293 294
231 304 312 307 313 297 286 293 277 286 300 297 312 320 12 3 351 343 339 332 328 337 339 335 333 333 329 327 322 322 320 319 317 311 308 304 302 300 299 298 296 296 296 294
298 298 305 304 309 303 299 317 265 305 313 311 309 328 359 343 335 326 322 325 344 342 335 336 336 328 323 320 321 319 319 321 317 311 308 307 307 306 305 306 306 302 300 297
261 295 299 294 304 299 310 110 349 323 317 299 301 353 352 328 326 326 11 17 348 338 339 337 328 322 320 323 322 320 321 320 318 316 313 313 311 308 307 305 301 300 299 294
225 255 284 295 295 297 313 231 183 308 303 306 340 349 331 336 323 32 61 10 350 347 338 327 321 318 319 318 322 321 317 319 320 319 318 316 313 309 306 303 301 300 297 293
229 215 256 277 288 293 300 115 109 330 313 66 18 345 336 328 316 336 5 354 351 341 330 323 319 318 317 322 324 318 315 317 318 320 318 314 310 308 305 300 298 298 296 293
242 238 249 271 280 288 65 113 276 312 42 6 339 339 324 331 319 319 328 339 341 332 327 325 324 321 321 323 325 317 316 318 322 320 315 311 309 307 302 298 298 298 296 295
295 287 283 284 284 301 113 300 320 339 329 311 321 315 315 314 309 315 327 335 335 332 329 329 323 321 324 329 327 319 319 323 322 319 315 313 311 309 306 303 299 297 296 297
293 299 300 299 309 319 235 282 297 294 281 279 287 302 312 308 310 318 327 335 334 329 329 326 325 324 328 333 331 323 324 325 322 319 316 314 313 309 305 301 299 300 300 299
305 330 309 289 284 285 287 294 290 270 261 264 274 285 289 295 306 317 325 329 328 330 325 326 326 325 328 334 335 331 327 325 321 317 316 316 314 311 308 304 300 301 305 306
299 293 282 277 278 277 277 284 288 277 258 251 256 267 275 284 295 310 324 329 329 322 323 326 325 328 332 338 336 330 328 328 323 318 316 316 313 310 308 305 301 301 303 300
286 291 294 298 302 295 295 289 279 263 252 253 256 263 272 281 294 309 320 323 318 319 325 328 331 332 333 333 330 328 330 332 323 317 316 314 313 311 308 308 307 292 279 255
Height
1479 1481 1484 1488 1484 1477 1476 1481 1491 1491 1483 1481 1484 1490 1492 1495 1497 1501 1505 1509 1512 1514 1516 1517 1517 1517 1517 1517 1517 1516 1515 1514 1513 1512 1511 1509 1508 1506 1504 1503 1500 1498 1497 1496
1476 1481 1481 1475 1472 1470 1468 1472 1477 1483 1481 1484 1485 1487 1491 1493 1495 1499 1504 1508 1512 1514 1516 1517 1518 1518 1518 1518 1517 1516 1515 1513 1512 1511 1509 1508 1506 1504 1503 1500 1498 1496 1494 1493
1476 1474 1470 1469 1469 1468 1470 1476 1477 1480 1481 1482 1485 1495 1496 1496 1499 1502 1504 1508 1511 1514 1516 1517 1518 1518 1518 1518 1517 1516 1513 1512 1510 1508 1507 1505 1502 1501 1499 1497 1496 1494 1491 1490
1478 1468 1468 1468 1468 1470 1483 1473 1472 1476 1484 1491 1491 1512 1505 1500 1502 1503 1505 1508 1511 1513 1515 1516 1517 1517 1517 1517 1516 1514 1512 1510 1507 1505 1503 1501 1499 1497 1495 1493 1492 1490 1488 1487
1483 1470 1468 1470 1467 1466 1473 1468 1475 1483 1491 1498 1509 1523 1513 1505 1505 1502 1504 1506 1509 1512 1514 1515 1516 1516 1515 1515 1514 1513 1510 1507 1504 1502 1501 1498 1496 1494 1491 1489 1487 1485 1484 1483
1481 1472 1466 1465 1464 1467 1467 1471 1479 1491 1507 1525 1517 1523 1512 1500 1498 1498 1501 1504 1508 1510 1512 1513 1513 1513 1513 1512 1511 1510 1507 1505 1502 1500 1498 1496 1493 1490 1487 1484 1483 1481 1480 1479
1495 1483 1472 1465 1469 1478 1475 1483 1503 1521 1531 1526 1504 1514 1500 1486 1489 1495 1499 1503 1506 1508 1509 1510 1510 1511 1510 1509 1508 1506 1504 1502 1499 1497 1495 1492 1490 1487 1484 1481 1479 1477 1475 1475
1504 1510 1484 1468 1469 1475 1470 1472 1492 1503 1500 1496 1498 1507 1494 1487 1492 1495 1498 1501 1504 1505 1506 1508 1508 1508 1507 1506 1505 1503 1501 1499 1496 1494 1491 1488 1486 1483 1480 1478 1475 1473 1471 1470
1487 1488 1470 1467 1465 1468 1471 1472 1466 1475 1475 1482 1493 1496 1494 1490 1492 1494 1497 1499 1501 1503 1505 1506 1506 1506 1505 1504 1502 1500 1497 1495 1492 1490 1487 1484 1481 1478 1475 1472 1470 1468 1466 1465
1474 1481 1469 1466 1463 1466 1469 1470 1474 1483 1494 1497 1489 1498 1501 1495 1494 1495 1496 1498 1500 1503 1504 1505 1505 1504 1503 1501 1499 1497 1494 1491 1488 1485 1482 1480 1476 1473 1470 1467 1465 1462 1460 1459
1473 1483 1479 1472 1476 1479 1476 1478 1480 1482 1484 1501 1501 1503 1491 1494 1494 1495 1497 1499 1501 1502 1503 1504 1503 1502 1500 1498 1496 1493 1491 1488 1485 1481 1478 1474 1471 1468 1465 1462 1460 1457 1455 1453
1475 1480 1488 1488 1483 1477 1476 1480 1484 1498 1499 1491 1494 1504 1488 1489 1491 1494 1497 1499 1501 1502 1502 1502 1501 1499 1497 1495 1493 1490 1487 1484 1481 1477 1473 1470 1466 1463 1460 1457 1455 1452 1449 1447
1484 1488 1495 1501 1503 1488 1477 1477 1480 1486 1491 1494 1498 1501 1488 1486 1491 1495 1498 1499 1500 1501 1500 1500 1498 1496 1494 1492 1489 1487 1484 1481 1477 1473 1469 1465 1462 1459 1456 1453 1450 1447 1444 1441
1488 1488 1494 1500 1493 1482 1480 1477 1477 1486 1494 1498 1495 1494 1487 1489 1493 1495 1497 1498 1498 1498 1498 1497 1495 1493 1491 1489 1486 1483 1480 1477 1473 1469 1465 1461 1458 1455 1451 1448 1445 1442 1439 1435
1486 1488 1484 1480 1475 1475 1478 1478 1479 1485 1489 1495 1493 1492 1488 1490 1493 1494 1495 1495 1496 1495 1495 1494 1492 1490 1487 1485 1482 1479 1476 1472 1468 1464 1461 1457 1454 1451 1447 1443 1440 1436 1433 1430
1484 1491 1488 1485 1476 1476 1477 1474 1476 1481 1484 1486 1488 1490 1487 1490 1492 1493 1494 1493 1493 1493 1492 1491 1489 1486 1484 1481 1478 1475 1472 1468 1464 1460 1457 1453 1450 1446 1442 1438 1435 1431 1427 1424
1483 1487 1493 1493 1480 1479 1484 1474 1474 1479 1479 1483 1489 1488 1487 1490 1491 1491 1491 1491 1491 1491 1490 1488 1486 1483 1480 1477 1474 1471 1468 1464 1460 1456 1452 1448 1445 1441 1437 1433 1429 1425 1421 1417
1486 1490 1493 1492 1489 1501 1480 1467 1471 1478 1480 1480 1481 1483 1488 1489 1488 1488 1488 1489 1490 1489 1488 1485 1483 1480 1477 1473 1470 1467 1463 1460 1456 1452 1447 1443 1439 1435 1431 1426 1422 1418 1414 1410
1479 1486 1492 1495 1496 1487 1475 1469 1472 1479 1481 1477 1480 1485 1486 1486 1487 1486 1489 1489 1488 1487 1485 1483 1480 1476 1473 1469 1466 1462 1459 1455 1451 1447 1442 1438 1433 1428 1424 1419 1415 1412 1408 1403
1476 1482 1490 1491 1498 1499 1476 1466 1472 1478 1482 1480 1482 1485 1486 1486 1486 1485 1486 1486 1485 1484 1482 1479 1476 1473 1469 1466 1462 1458 1455 1451 1446 1442 1437 1432 1427 1422 1417 1413 1409 1405 1402 1397
1481 1483 1486 1488 1490 1479 1466 1470 1473 1484 1487 1483 1483 1484 1485 1485 1487 1487 1485 1484 1483 1481 1478 1476 1472 1469 1466 1462 1458 1454 1450 1446 1442 1437 1432 1426 1421 1416 1411 1406 1403 1399 1396 1391
1478 1480 1481 1480 1485 1483 1472 1472 1475 1479 1478 1480 1481 1482 1482 1483 1483 1483 1482 1481 1479 1478 1475 1472 1469 1465 1462 1458 1454 1450 1446 1442 1437 1432 1426 1421 1415 1410 1405 1401 1397 1394 1390 1386
1469 1470 1472 1475 1478 1474 1472 1472 1472 1474 1475 1477 1479 1479 1480 1480 1480 1480 1479 1478 1476 1474 1472 1469 1466 1462 1458 1454 1450 1446 1441 1437 1432 1427 1421 1416 1410 1405 1400 1397 1393 1389 1386 1382
1467 1465 1467 1469 1468 1468 1468 1468 1469 1470 1472 1473 1475 1476 1477 1477 1477 1477 1476 1475 1473 1471 1469 1465 1462 1458 1454 1450 1446 1442 1437 1432 1428 1422 1417 1411 1405 1400 1396 1393 1390 1386 1382 1378
1467 1467 1467 1467 1464 1464 1464 1464 1465 1466 1467 1469 1471 1472 1473 1473 1474 1474 1473 1472 1470 1468 1465 1462 1459 1455 1451 1446 1441 1437 1433 1428 1424 1418 1413 1407 1402 1397 1393 1389 1387 1383 1379 1375
1463 1461 1462 1463 1461 1461 1462 1463 1462 1462 1463 1465 1467 1468 1469 1470 1470 1471 1470 1469 1467 1465 1462 1459 1455 1451 1447 1442 1437 1433 1429 1425 1420 1414 1409 1404 1399 1394 1390 1387 1383 1380 1376 1372